Regional Weather Roundup
Issued by NWS

Home | Current Version | Previous Version | Text Only | Print | Product List | Glossary Off
Versions: 1 2 3 4 5 6 7 8 9 10 11 12 13 14 15 16 17 18 19 20 21 22 23 24 25 26 27 28 29 30 31 32 33 34 35 36 37 38 39 40 41 42 43 44 45 46 47 48 49 50

000
ASUS43 KDTX 281001
RWRMI
MICHIGAN HOURLY REGIONAL WEATHER ROUNDUP
NATIONAL WEATHER SERVICE DETROIT/PONTIAC MI
600 AM EDT TUE APR 28 2015

NOTE: "FAIR" INDICATES FEW OR NO CLOUDS BELOW 12,000 FEET WITH NO
SIGNIFICANT WEATHER AND/OR OBSTRUCTION TO VISIBILITY.

MIZ047>049-052>055-059>063-066>070-074>076-081>083-281100-
SOUTHEAST LOWER MICHIGAN

CITY           SKY/WX    TMP DP  RH WIND       PRES   REMARKS
ADRIAN         CLEAR     32  30  92 NW3       30.12R
ALMA           CLEAR     32  32  99 CALM      30.13R
ANN ARBOR      CLEAR     28  28 100 CALM      30.11R
BAD AXE        CLEAR     31  29  93 CALM      30.11R
CARO           PTCLDY    29  28  95 CALM      30.11R
DETROIT CITY   CLEAR     36  30  79 NW3       30.11R
DETROIT        PTCLDY    38  32  79 W3        30.12R
FLINT          CLEAR     32  28  85 CALM      30.12R
GROSSE ILE     CLEAR     36  34  93 CALM      30.10R
HILLSDALE      CLEAR     32  32  99 CALM      30.10S
HOWELL         CLEAR     32  30  94 W5        30.11R WCI  27

CITY           SKY/WX    TMP DP  RH WIND       PRES   REMARKS
JACKSON        CLEAR     31  29  92 CALM      30.11R
LAMBERTVILLE   CLEAR     32  32 100 CALM      30.12S
LANSING        CLEAR     36  31  82 CALM      30.13R
LAPEER         FAIR      28  28  98 CALM      30.10S
MASON          CLEAR     31  29  93 CALM      30.12R
MONROE         CLEAR     30  30 100 CALM      30.10R
PONTIAC        PTCLDY    34  30  85 W5        30.10R WCI  30
PORT HOPE        N/A     35  32  88 CALM      30.09R
PORT HURON     CLEAR     30  30 100 NW3       30.10S
TRI CITIES     CLEAR     38  34  85 W6        30.13R WCI  33
MIDLAND        FAIR      31  30  96 CALM      30.12S
TROY           CLEAR     40  32  73 NW3       30.12R
SAGINAW HB     CLEAR     34  32  93 CALM      30.11S
$$
MIZ043>046-050>051-056>058-064>065-071>073-077>080-281100-
SOUTHWEST LOWER MICHIGAN

CITY           SKY/WX    TMP DP  RH WIND       PRES   REMARKS
BATTLE CREEK   CLEAR     35  31  85 CALM      30.12R
BENTON HARBOR  CLEAR     30  29  96 CALM      30.13R
BIG RAPIDS     CLEAR     32  31  95 CALM      30.12S
COLDWATER      CLEAR     32  31  98 SW3       30.11S FOG
FREMONT        FAIR      35  32  90 CALM      30.12S
HOLLAND        CLEAR     35  32  88 E3        30.12S
GRAND RAPIDS   CLEAR     37  32  82 SE3       30.12R
IONIA          FAIR      38  32  80 CALM      30.12R
KALAMAZOO      CLEAR     34  32  92 CALM      30.13R
LUDINGTON      CLEAR     36  33  90 CALM      30.14S
MARSHALL       CLEAR     30  29  98 CALM      30.11S FOG
MOUNT PLEASANT CLEAR     33  32  95 CALM      30.12R
MUSKEGON       CLEAR     39  33  79 NE5       30.13R
SOUTH HAVEN    CLEAR     32  30  94 CALM      30.12S FOG
$$
MIZ016>042-281100-
NORTHERN LOWER MICHIGAN

CITY           SKY/WX    TMP DP  RH WIND       PRES   REMARKS
BEAVER ISLAND  CLOUDY    39  33  80 CALM      30.15S
BELLAIRE       CLOUDY    38  34  85 CALM      30.14R
CADILLAC       CLEAR     29  28  94 CALM      30.11S
CHARLEVOIX     CLOUDY    38  34  87 CALM      30.17S
FRANKFORT      CLEAR     33  28  83 CALM      30.14S
GAYLORD        CLOUDY    41  35  79 N3        30.12R
GRAYLING       CLEAR     32  30  91 CALM      30.13R
HARBOR SPRINGS CLOUDY    36  33  90 CALM      30.14S
HOUGHTON LAKE  CLEAR     31  28  89 CALM      30.12R
MANISTEE       CLEAR     30  27  86 CALM      30.14S
OSCODA         CLOUDY    42  36  78 N3        30.11R
PELLSTON       CLOUDY    42  35  76 CALM      30.14S
ROGERS CITY    CLOUDY    41  35  81 CALM      30.14S
TRAVERSE CITY  CLEAR     32  29  88 CALM      30.13R
$$
MIZ007>008-015-281100-
EASTERN UPPER MICHIGAN

CITY           SKY/WX    TMP DP  RH WIND       PRES   REMARKS
KINROSS        CLOUDY    37  36  93 CALM      30.14S
MACKINAC ISLAN CLOUDY    39  33  81 CALM      30.14S
NEWBERRY       CLOUDY    36  33  88 NW5       30.14S WCI  32
S. S. MARIE    CLOUDY    42  34  73 CALM      30.14R
$$
MIZ004>006-011>014-085-281100-
CENTRAL UPPER MICHIGAN

CITY           SKY/WX    TMP DP  RH WIND       PRES   REMARKS
MANISTIQUE     PTCLDY    35  31  88 N5        30.15R WCI  30
ESCANABA       CLEAR     30  27  86 CALM      30.17R
MENOMINEE      CLEAR     34  28  80 NW5       30.17R WCI  30
SAWYER-GWINN   CLEAR     29  27  92 CALM      30.14S
$$
MIZ001>003-009>011-084-281100-
WESTERN UPPER MICHIGAN

CITY           SKY/WX    TMP DP  RH WIND       PRES   REMARKS
IRON MOUNTAIN  CLEAR     29  26  89 CALM      30.15S
HOUGHTON       CLEAR     37  29  72 W3        30.13S
COPPER HARBOR    N/A     37  30  75 SW6       30.13S WCI  32
IRONWOOD       CLEAR     30  30 100 CALM      30.13S
$$

ABBREVIATIONS USED IN REMARKS
   TC - TEMPERATURE IN CELSIUS
  WCI - WIND CHILL INDEX
   HX - HEAT INDEX
  VSB - VISIBILITY



USA.gov is the U.S. government's official web portal to all federal, state and local government web resources and services.